Location: Newark
(49.3000°N, 9.4667°E)
Time: 19:14:21
(UTC+00:00)

Transit 4A - Pass Details

Date: 03 June 2019
Orbit: 862 x 983 km, 66.8° (Epoch: 16 June)

Event Time Altitude Azimuth Distance (km) Brightness Sun altitude
Rises 20:21:13 0° 323° (NW) 3,698 13.5 -8.0°
Reaches altitude 10° 20:23:48 10° 322° (NW) 2,745 12.1 -8.3°
Maximum altitude 20:30:15 80° 237° (WSW) 995 8.1 -9.0°
Enters shadow 20:36:16 11° 152° (SSE) 2,586 9.6 -9.6°
